sat.trackr.live / text

‹ back to catalog

STARLINK-1560

NORAD 46036 · 2020-055K

PAYLOAD ACTIVE UNKNOWN

§ Identity

Operator
Country
US
Launch date
2020-08-07
Launch site
AFETR
Launch vehicle
Mass (kg)
RCS (m²)

Purposes: comms

External: N2YO · Heavens-Above · Gunter

§ Orbital elements

Epoch: 2026-09-19T18:29:38.715072Z

Period
94.01 min
Inclination
53.1620°
Eccentricity
0.0001165
Mean motion
15.31697001 rev/d
Perigee alt
470.0 km
Apogee alt
471.5 km
Semi-major
6,848.9 km
B*
-2.8712e-5
RAAN
304.2923°
Arg perigee
85.8123°
Mean anomaly
274.3012°
Rev number
33,862

§ Raw data

STARLINK-15601 46036U 20055K   26262.77058698 -.00001256  00000+0 -28712-4 0  99982 46036  53.1620 304.2923 0001165  85.8123 274.3012 15.31697001338625

JSON: /api/v1/satellites/46036 · /tle

For live sub-satellite position, see the globe view (requires WebGL).

§ Visibility from observer

Set your observer location to see the next 7 days of passes ≥ 10°. The values pass through the URL so the page stays shareable.

No JS? Fill the form by hand. The geolocation button needs JavaScript.